Regional Weather Roundup
Issued by NWS New Orleans/Baton Rouge, LA

Home | Current Version | Previous Version | Graphics & Text | Print | Product List | Glossary On
Versions: 1 2 3 4 5 6 7 8 9 10 11 12 13 14 15 16 17 18 19 20 21 22 23 24 25 26 27 28 29 30 31 32 33 34 35 36 37 38 39 40 41 42 43 44 45 46 47 48 49 50
766
ASUS44 KLIX 010605
RWRLIX
NEW ORLEANS REGIONAL WEATHER ROUNDUP
NATIONAL WEATHER SERVICE NEW ORLEANS LA
1200 AM CST SUN FEB 01 2015

NOTE: "FAIR" INDICATES FEW OR NO CLOUDS BELOW 12,000 FEET WITH NO
      SIGNIFICANT WEATHER AND/OR OBSTRUCTIONS TO VISIBILITY.
      SKY/WX - SKY CONDITION AND SIGNIFICANT WEATHER.
      TMP - AIR TEMPERATURE.     DP    - DEWPOINT TEMPERATURE.
      RH  - RELATIVE HUMIDITY.   PRES  - PRESSURE.
      HI  - HEAT INDEX.          WCI   - WIND CHILL INDEX.

*  THESE STATIONS ARE NOT NWS OR FAA STATIONS AND ARE NOT UNDER
   NWS QUALITY CONTROL.

LAZ038-040-048-061>063-065>067-069-010700-
SOUTHEAST LOUISIANA

CITY           SKY/WX    TMP DP  RH WIND       PRES   REMARKS
N.O. AUDUBON     N/A     58  56  92 MISG        N/A
6HR MIN TEMP:  56; 6HR MAX TEMP:  60;

N.O. INTL ARPT CLOUDY    58  51  78 E6        30.11F
6HR MIN TEMP:  56; 6HR MAX TEMP:  59;

N.O. LAKEFRONT MOCLDY    60  52  74 E12       30.13F
6HR MIN TEMP:  57; 6HR MAX TEMP:  60;

N.O. DOWNTOWN* NOT AVBL
SLIDELL        MOCLDY    53  49  86 E5        30.13F
6HR MIN TEMP:  52; 6HR MAX TEMP:  55;

BATON ROUGE    CLOUDY    54  48  80 E10       30.09F
6HR MIN TEMP:  54; 6HR MAX TEMP:  56;

BOOTHVILLE     CLOUDY    58  53  84 E8        30.13F
6HR MIN TEMP:  57; 6HR MAX TEMP:  59;

BELLE CHASSE   CLOUDY    59  52  77 E7        30.12F
6HR MIN TEMP:  55; 6HR MAX TEMP:  59;

BOGALUSA*        N/A     52  46  79 CALM      30.16F
6HR MIN TEMP:  51; 6HR MAX TEMP:  58;

GALLIANO*      CLOUDY    63  56  78 MISG      30.10F
6HR MIN TEMP:  59; 6HR MAX TEMP:  63;

NEW ROADS*     CLOUDY    55  49  80 E7        30.09F
6HR MIN TEMP:  54; 6HR MAX TEMP:  57;

GONZALES*      CLOUDY    55  53  91 E3        30.10F
6HR MIN TEMP:  54; 6HR MAX TEMP:  56;

HAMMOND*       CLOUDY    54  48  82 E3        30.13F
HOUMA*         CLOUDY    58  54  88 E7        30.09F
6HR MIN TEMP:  55; 6HR MAX TEMP:  59;

PORT FOURCHON* CLOUDY    66  59  77 E15G21    30.12F

$$

MSZ070-080>082-010700-
SOUTHERN MISSISSIPPI

CITY           SKY/WX    TMP DP  RH WIND       PRES   REMARKS
MCCOMB         CLOUDY    51  46  83 SE8       30.12F
6HR MIN TEMP:  50; 6HR MAX TEMP:  53;

GULFPORT       PTCLDY    50  46  86 E7        30.16F
6HR MIN TEMP:  49; 6HR MAX TEMP:  55;

BILOXI         MOCLDY    50  47  92 E5        30.17F
6HR MIN TEMP:  50; 6HR MAX TEMP:  55;

PASCAGOULA     PTCLDY    44  42  93 CALM      30.18F
6HR MIN TEMP:  43; 6HR MAX TEMP:  52;


$$

COASTAL OBSERVATIONS
LAKE AND NEARSHORE STATIONS

STATION/POSITION TIME  TEMP    WIND        PRES    WAVE
                       AIR SEA DIR/SP/G            HT/PER
                 (UTC) (F)     (DEG/KT/KT) (MB)    (FT/S)
PASCAGOULA       0600   58     120/  4/  6 1021.2
WAVELAND YACHT   0600   52      70/  8/  9 1020.1
GRAND ISLE       0600   63 63  110/  6/ 11 1020.1
SOUTHWEST PASS   0600   64 49  130/ 15/ 19 1019.9
NEW CANAL        0600   57 55  100/  2/  6 1020.3
SHELL BEACH      0600   59 56  110/ 12/ 14 1020.0

OFFSHORE STATIONS

STATION/POSITION TIME  TEMP    WIND        PRES    WAVE
                       AIR SEA DIR/SP/G            HT/PER
                 (UTC) (F)     (DEG/KT/KT) (MB)    (FT/S)
64 S DAUPHIN ISL 0458   65 69  150/ 16/ 19 1021.8    5/ 6

$$




USA.gov is the U.S. government's official web portal to all federal, state and local government web resources and services.